Ludington, MI

12:21 AM EST on December 18, 2017 (GMT -0500)
Mason County

Weather History for KLDM - September, 2013

Change the Weather History Date:

Monday, September 9, 2013

  Actual Average Record
Temperature  
Mean Temperature 72 °F -  
Max Temperature 82 °F 74 °F 86 °F (1959)
Min Temperature 61 °F 52 °F 33 °F (1956)
Cooling Degree Days 6    
Growing Degree Days 22 (Base 50)    
Moisture  
Dew Point 63 °F    
Average Humidity 75    
Maximum Humidity 90    
Minimum Humidity 65    
Precipitation  
Precipitation 0.34 in - - ()
Sea Level Pressure  
Sea Level Pressure 29.92 in    
Wind  
Wind Speed 8 mph (SSE)    
Max Wind Speed 15 mph    
Max Gust Speed 23 mph    
Visibility 10 miles    
Events Rain    
Averages and records for this station are not official NWS values.
T = Trace of Precipitation, MM = Missing Value Source: NWS Daily Summary

Daily Weather History Graph

Daily Weather History Graph

Search for Another Location

Airport or City:

Trip Planner

Search our weather history database for the weather conditions in past years. The results will help you decide how hot, cold, wet, or windy it might be!

Date:

Astronomy

Sep. 09, 2013 Rise Set
Actual Time 7:18 AM EDT 8:06 PM EDT
Civil Twilight 6:49 AM EDT 8:35 PM EDT
Nautical Twilight 6:14 AM EDT 9:10 PM EDT
Astronomical Twilight 5:38 AM EDT 9:46 PM EDT
Moon 11:49 AM EDT (9/9) 10:11 PM EDT (9/9)
Length of Visible Light 13h 46m
Length of Day
12h 48m
Waxing Crescent, 19% of the Moon is Illuminated
Sep 9
Waxing Crescent
Sep 12
First Quarter
Sep 19
Full
Sep 26
Last Quarter
Oct 4
New

Hourly Weather History & Observations

Time (EDT) Temp. Heat Index Dew Point Humidity Pressure Visibility Wind Dir Wind Speed Gust Speed Precip Events Conditions
12:15 AM 63.5 °F - 51.8 °F 66% 30.04 in 10.0 mi SE 10.4 mph - N/A   Scattered Clouds
12:35 AM 62.2 °F - 51.3 °F 67% 30.04 in 10.0 mi SE 8.1 mph - N/A Rain Light Rain
12:55 AM 62.2 °F - 51.3 °F 67% 30.04 in 10.0 mi SE 9.2 mph - N/A   Clear
1:15 AM 62.2 °F - 51.3 °F 67% 30.03 in 10.0 mi SE 9.2 mph - N/A   Clear
1:35 AM 62.2 °F - 51.3 °F 67% 30.03 in 10.0 mi ESE 6.9 mph - N/A   Mostly Cloudy
1:55 AM 62.2 °F - 51.4 °F 68% 30.02 in 10.0 mi SE 8.1 mph - N/A   Overcast
2:14 AM 62.2 °F - 51.4 °F 68% 30.01 in 10.0 mi SE 8.1 mph - N/A   Overcast
2:35 AM 62.2 °F - 51.1 °F 67% 30.01 in 10.0 mi SE 6.9 mph - N/A   Overcast
2:55 AM 62.2 °F - 50.9 °F 66% 30.01 in 10.0 mi ESE 6.9 mph - N/A   Overcast
3:14 AM 62.2 °F - 51.3 °F 67% 30.00 in 10.0 mi ESE 5.8 mph - N/A   Mostly Cloudy
3:35 AM 62.2 °F - 51.3 °F 67% 30.00 in 10.0 mi ESE 4.6 mph - N/A   Scattered Clouds
3:55 AM 62.2 °F - 52.0 °F 69% 30.00 in 10.0 mi ESE 5.8 mph - N/A   Clear
4:15 AM 62.2 °F - 52.0 °F 69% 29.99 in 10.0 mi SE 4.6 mph - N/A   Scattered Clouds
4:35 AM 62.2 °F - 52.5 °F 70% 29.99 in 10.0 mi ESE 5.8 mph - N/A   Mostly Cloudy
4:55 AM 62.2 °F - 52.9 °F 71% 29.99 in 10.0 mi ESE 4.6 mph - N/A   Mostly Cloudy
5:15 AM 62.2 °F - 53.4 °F 73% 29.99 in 10.0 mi ESE 6.9 mph - N/A   Mostly Cloudy
5:35 AM 62.2 °F - 53.6 °F 73% 29.98 in 10.0 mi ESE 8.1 mph - N/A   Scattered Clouds
5:55 AM 62.2 °F - 53.8 °F 74% 29.99 in 10.0 mi SE 4.6 mph - N/A   Mostly Cloudy
6:15 AM 62.2 °F - 54.1 °F 75% 29.97 in 10.0 mi ESE 9.2 mph - N/A   Overcast
6:35 AM 62.4 °F - 55.0 °F 77% 29.97 in 10.0 mi SE 8.1 mph - N/A   Overcast
6:55 AM 63.5 °F - 56.3 °F 77% 29.97 in 10.0 mi SE 9.2 mph - N/A   Overcast
7:15 AM 62.1 °F - 57.0 °F 84% 29.97 in 5.0 mi SE 8.1 mph - 0.06 in Rain Heavy Rain
7:35 AM 61.0 °F - 57.2 °F 87% 29.99 in 5.0 mi East 4.6 mph - 0.17 in Rain Heavy Rain
7:54 AM 61.0 °F - 57.6 °F 88% 29.98 in 7.0 mi ESE 4.6 mph - 0.22 in Rain Light Rain
8:15 AM 61.0 °F - 57.7 °F 89% 29.99 in 7.0 mi SSE 3.5 mph - 0.01 in   Drizzle
8:35 AM 61.0 °F - 58.1 °F 90% 29.97 in 4.0 mi SE 6.9 mph - 0.12 in Rain Light Rain
8:55 AM 61.0 °F - 58.1 °F 90% 29.97 in 10.0 mi SE 5.8 mph - 0.12 in   Overcast
9:15 AM 61.0 °F - 58.1 °F 90% 29.97 in 10.0 mi SE 6.9 mph - N/A   Overcast
9:35 AM 61.0 °F - 58.1 °F 90% 29.97 in 10.0 mi SE 5.8 mph - N/A   Overcast
9:55 AM 61.0 °F - 58.1 °F 90% 29.97 in 10.0 mi ESE 8.1 mph - N/A Rain Light Rain
10:15 AM 61.0 °F - 58.1 °F 90% 29.96 in 10.0 mi SE 5.8 mph - N/A   Overcast
10:35 AM 62.2 °F - 59.4 °F 90% 29.96 in 10.0 mi SE 6.9 mph - N/A   Overcast
10:55 AM 63.5 °F - 60.4 °F 90% 29.96 in 10.0 mi SE 5.8 mph - N/A   Overcast
11:15 AM 65.3 °F - 62.1 °F 89% 29.95 in 10.0 mi SE 5.8 mph - N/A   Overcast
11:35 AM 68.5 °F - 64.6 °F 87% 29.95 in 10.0 mi SE 6.9 mph - N/A   Overcast
11:55 AM 71.1 °F - 66.6 °F 86% 29.95 in 10.0 mi SSE 4.6 mph - N/A   Overcast
12:15 PM 71.1 °F - 66.2 °F 85% 29.95 in 10.0 mi SSE 5.8 mph - N/A   Overcast
12:35 PM 73.8 °F - 66.7 °F 79% 29.95 in 10.0 mi South 6.9 mph - N/A   Mostly Cloudy
12:55 PM 75.2 °F - 68.0 °F 78% 29.94 in 10.0 mi SSE 8.1 mph - N/A   Overcast
1:15 PM 76.1 °F - 68.9 °F 78% 29.93 in 10.0 mi SSE 4.6 mph - N/A   Mostly Cloudy
1:35 PM 76.1 °F - 68.0 °F 76% 29.94 in 10.0 mi SSE 5.8 mph - N/A   Mostly Cloudy
1:55 PM 76.1 °F - 68.2 °F 76% 29.92 in 10.0 mi SSE 6.9 mph - N/A   Mostly Cloudy
2:15 PM 76.1 °F - 67.3 °F 74% 29.92 in 10.0 mi SSE 4.6 mph - N/A   Scattered Clouds
2:34 PM 78.8 °F - 69.3 °F 72% 29.91 in 10.0 mi SE 5.8 mph - N/A   Scattered Clouds
2:55 PM 78.8 °F - 69.1 °F 72% 29.90 in 10.0 mi SE 6.9 mph - N/A   Scattered Clouds
3:15 PM 78.3 °F - 70.0 °F 76% 29.89 in 10.0 mi SSE 4.6 mph - N/A   Clear
3:34 PM 78.8 °F - 69.4 °F 73% 29.87 in 10.0 mi SE 8.1 mph - N/A   Clear
3:55 PM 81.1 °F 85.2 °F 71.2 °F 72% 29.86 in 10.0 mi South 8.1 mph - N/A   Scattered Clouds
4:15 PM 81.1 °F 84.9 °F 70.7 °F 70% 29.86 in 10.0 mi South 11.5 mph 16.1 mph N/A   Mostly Cloudy
4:34 PM 82.6 °F 87.1 °F 71.2 °F 68% 29.84 in 10.0 mi SSW 10.4 mph - N/A   Scattered Clouds
4:55 PM 82.2 °F 86.4 °F 70.9 °F 68% 29.84 in 10.0 mi SSW 13.8 mph 17.3 mph N/A   Scattered Clouds
5:15 PM 81.3 °F 85.2 °F 70.7 °F 70% 29.84 in 10.0 mi SSW 9.2 mph - N/A   Clear
5:34 PM 81.5 °F 85.5 °F 70.7 °F 70% 29.83 in 10.0 mi SSW 11.5 mph - N/A   Clear
5:55 PM 81.1 °F 84.9 °F 70.3 °F 70% 29.83 in 10.0 mi SSW 6.9 mph - N/A   Clear
6:15 PM 81.1 °F 84.5 °F 69.6 °F 68% 29.82 in 10.0 mi SSW 11.5 mph - N/A   Clear
6:34 PM 81.1 °F 84.0 °F 68.4 °F 65% 29.82 in 10.0 mi South 8.1 mph - N/A   Clear
6:55 PM 80.1 °F 83.2 °F 69.8 °F 71% 29.82 in 10.0 mi South 10.4 mph - N/A   Clear
7:15 PM 78.8 °F - 69.4 °F 73% 29.81 in 7.0 mi South 6.9 mph - N/A   Clear
7:35 PM 78.8 °F - 70.0 °F 74% 29.81 in 7.0 mi South 5.8 mph - N/A   Clear
7:55 PM 78.8 °F - 70.0 °F 74% 29.80 in 7.0 mi SSE 5.8 mph - N/A   Clear
8:15 PM 78.8 °F - 70.2 °F 75% 29.80 in 7.0 mi SSE 4.6 mph - N/A   Clear
8:35 PM 78.8 °F - 70.3 °F 75% 29.80 in 10.0 mi SSE 4.6 mph - N/A   Clear
8:55 PM 78.8 °F - 70.0 °F 74% 29.80 in 10.0 mi South 6.9 mph - N/A   Clear
9:14 PM 78.8 °F - 70.0 °F 74% 29.80 in 10.0 mi South 8.1 mph - N/A   Clear
9:35 PM 78.8 °F - 70.0 °F 74% 29.80 in 10.0 mi South 8.1 mph - N/A   Clear
9:55 PM 78.8 °F - 70.0 °F 74% 29.80 in 10.0 mi South 8.1 mph - N/A   Clear
10:15 PM 78.8 °F - 70.2 °F 75% 29.80 in 10.0 mi South 8.1 mph - N/A   Clear
10:35 PM 81.3 °F 85.2 °F 70.7 °F 70% 29.80 in 10.0 mi South 12.7 mph - N/A   Clear
10:55 PM 82.6 °F 87.3 °F 71.6 °F 69% 29.80 in 10.0 mi SSW 13.8 mph 19.6 mph N/A   Clear
11:15 PM 81.3 °F 85.4 °F 71.2 °F 71% 29.79 in 10.0 mi SSW 12.7 mph 23.0 mph N/A   Clear
11:35 PM 81.1 °F 85.4 °F 71.8 °F 73% 29.79 in 10.0 mi SSW 13.8 mph 19.6 mph N/A   Clear
11:55 PM 81.1 °F 85.6 °F 72.3 °F 74% 29.79 in 10.0 mi SSW 15.0 mph 21.9 mph N/A   Clear